YAOGAN-30 C

Satellite information

Favourite Embed

Satellite Type and Status

PAYLOADIN ORBIT

Key statistics

Satellite YAOGAN-30 C at a glance.

Uptime

2902

Days in orbit

Revolutions

≈ 15.0

Per day

Orbit

LEO

Low Earth Orbit

Inclination

35.0

Latest

Satellite identification and parameters

Extended collection of information and parameters for YAOGAN-30 C.

Object identification

Identified? True

Debris? False

Object name: YAOGAN-30 C

International designator: 2017-058C

Object number (NORAD): 42947

Object ID (CCSDS): 42947

Country: PEOPLES REPUBLIC OF CHINA (PRC)

Current information (Y/N): Y

RCS size: LARGE

Orbital parameters

Period: 95.879 minutes

Inclination: 34.9976 deg

SMA: 6939.189 km

Apoapsis: 565.062 km

Periapsis: 557.046 km

RAAN: 299.3998 deg

Eccentricy: 0.00057762

Argument of periapsis: 258.2755 deg

Mean anomaly: 101.7305 deg

Mean motion: 15.01895464 rev/day

Mean motion (dot): 0.00004081 rev/day2

B* drag term: 0.00030796628 1/REarth

Two-line elements (TLE)

Creation date: Sept. 8, 2025, 6:18 p.m.

Reference frame: TEME

Reference center: EARTH

Epoch: Sept. 8, 2025, 11:49 a.m. UTC

TLE line 0: 0 YAOGAN-30 C

TLE line 1: 1 42947U 17058C 25251.49262178 .00004081 00000-0 30797-3 0 9993

TLE line 2: 2 42947 34.9976 299.3998 0005776 258.2755 101.7305 15.01895464433408

Live tracking on map

Real-time ground track for satellite YAOGAN-30 C.

In-orbit conjunctions

There are no conjunctions computed for YAOGAN-30 C, at the moment. Check back to stay up to date, as we update our databases every day.

Go to all conjunctions

Associated space launch

YAOGAN-30 C was lifted into orbit during the mission ‘Long March 2C | 3 x Yaogan-30-01’, on board a Long March 2 space rocket.

The launch took place on Sept. 29, 2017, 4:21 a.m. from Launch Complex 3 (LC-3/LA-1).

For more information about the launch, click the button.

Launch to space Long March 2C | 3 x Yaogan-30-01
Long March 2C | 3 x Yaogan-30-01

Agency: N/A

Status: Launch Successful

Launch date: Sept. 29, 2017, 4:21 a.m. UTC

Rocket: Long March 2

Launch pad: Launch Complex 3 (LC-3/LA-1)

Location: Xichang Satellite Launch Center, People's Republic of China

...

Latest news about this satellite

There are no fresh news available about this satellite. Check back as we update our databases every day.


Newsletter sign-up

Weekly statistics, charts and insights to help you stay on top of the space industry.